Flag for U.S.A. Weather past 2 weeks in Hollywood, California, U.S.A.

Now
89 °F

Passing clouds.


Feels Like: 86 °F
Forecast: 66 / 83 °F
Wind: 5 mph from South

Location: Burbank-Glendale-Pasadena Airport

Current Time: Jul 1, 2015 at 2:42:34 PM

Latest Report: Jul 1, 2015 at 1:53 PM


Visibility: 10 mi

Pressure: 29.85 "Hg

Humidity: 26%

Dew point: 50 °F

Location of HollywoodLocation

Historic Weather in Hollywood — Graph

°F

Hollywood temperature yesterday

Maximum temperature yesterday: 94 °F (at 12:53 PM)
Minimum temperature yesterday: 72 °F (at 3:53 AM)
Average temperature yesterday: 82 °F

Past Weeks' High & Low Weather Summary

 TemperatureHumidityPressure
High97 °F (Jun 29, 2:53 PM)87% (Jun 17, 4:53 AM)29.99 "Hg (Jun 17, 4:53 AM)
Low61 °F (Jun 17, 4:53 AM)14% (Jun 30, 7:53 PM)29.75 "Hg (Jun 20, 2:53 AM)
Average77 °F49%29.86 "Hg
* Reported Jun 16 12:53 PM — Jul 1 12:53 PM, Hollywood, Weather by CustomWeather, © 2015

Note: Actual official high and low records may vary slightly from our data, if they occured in-between our weather recording intervals... More about our weather records

Advertising

Hollywood weather history for previous 24 hours

 ConditionsComfort  
Time TempWeatherWind HumidityBarometerVisibility
12:53 PM
Wed, Jul 1
88 °FSunny.5 mph28%29.85 "Hg10 mi
11:53 AM89 °FSunny.No wind23%29.88 "Hg10 mi
10:53 AM83 °FSunny.6 mph43%29.89 "Hg10 mi
9:53 AM80 °FSunny.13 mph47%29.89 "Hg10 mi
8:53 AM82 °FSunny.9 mph38%29.87 "Hg10 mi
7:53 AM78 °FSunny.No wind45%29.85 "Hg10 mi
6:53 AM76 °FSunny.3 mph50%29.86 "Hg10 mi
5:53 AM75 °FClear.No wind54%29.88 "Hg10 mi
4:53 AM73 °FClear.3 mph64%29.86 "Hg10 mi
3:53 AM73 °FClear.9 mph62%29.86 "Hg10 mi
2:53 AM74 °FClear.No wind62%29.82 "Hg10 mi
1:53 AM75 °FClear.5 mph58%29.81 "Hg10 mi
12:53 AM75 °FClear.7 mph58%29.81 "Hg10 mi
11:53 PM
Tue, Jun 30
76 °FClear.3 mph56%29.82 "Hg10 mi
10:53 PM77 °FClear.7 mph54%29.80 "Hg10 mi
8:53 PM88 °FSunny.8 mph19%29.78 "Hg10 mi
7:53 PM89 °FSunny.6 mph14%29.77 "Hg10 mi
6:53 PM87 °FScattered clouds.7 mph22%29.79 "Hg10 mi
6:00 PM84 °FOvercast.3 mph27%29.87 "Hg10 mi
4:53 PM86 °FPassing clouds.17 mph26%29.92 "Hg10 mi
3:53 PM87 °FSunny.17 mph35%29.87 "Hg10 mi
2:53 PM94 °FSunny.15 mph26%29.82 "Hg10 mi
Weather by CustomWeather, © 2015

See weather overviewHow to use our weather pages